Location: Cheyres
(46.8153°N, 6.7877°E)
Time: 09:37:45
(UTC+00:00)

Explorer 11/Cluster Stage 4 - All Passes

Search period start: 28 May 2022 00:00
Search period end: 07 June 2022 00:00
Orbit: 466 x 1252 km, 28.8° (Epoch: 27 May)

Date Brightness Start Highest point End Pass type
(mag) Time Alt. Az. Time Alt. Az. Time Alt. Az.
02 Jun - 18:41:19 10° SSW 18:42:53 11° S 18:44:24 10° SSE daylight
03 Jun - 18:28:24 10° SSW 18:30:47 12° S 18:33:00 10° SSE daylight
04 Jun - 16:28:52 10° S 16:31:03 12° S 16:33:09 10° SSE daylight
04 Jun - 18:15:39 10° SSW 18:18:38 13° S 18:21:21 10° SSE daylight
05 Jun - 16:15:39 10° SSW 16:18:50 13° S 16:21:49 10° SE daylight
05 Jun - 18:03:01 10° SW 18:06:27 14° S 18:09:36 10° SSE daylight
06 Jun - 16:02:43 10° SSW 16:06:37 15° S 16:10:14 10° SE daylight
06 Jun - 17:50:27 10° SW 17:54:15 15° S 17:57:43 10° SSE daylight
